1497160800.19,38641,17.69,74276.3,11.97,-6.55,-20.15,0,*7B
1497160801.4,38642,17.69,74274.0,11.99,-6.39,-19.95,0,*7E
1497160802.6,38643,17.69,74272.8,11.99,-6.43,-19.91,0,*76
1497160803.82,38644,17.69,74274.8,12.05,-6.09,-19.75,0,*73
1497160805.05,38645,17.63,74274.8,12.07,-6.23,-19.95,0,*76
1497160806.27,38646,17.63,74274.5,12.09,-6.81,-20.69,0,*7A
1497160807.53,38647,17.69,74272.3,12.09,-6.97,-20.89,0,*72
1497160808.76,38648,17.69,74272.3,12.09,-6.55,-20.43,0,*75
1497160810.01,38649,17.69,74274.5,12.13,-5.77,-19.75,0,*73
1497160811.26,38650,17.63,74274.5,12.13,-5.89,-19.91,0,*70
1497160812.49,38651,17.69,74276.5,12.15,-6.27,-20.59,0,*7E
1497160813.72,38652,17.69,74272.0,12.17,-6.09,-20.39,0,*75
1497160814.95,38653,17.69,74272.8,12.17,-6.31,-20.73,0,*71
1497160816.2,38654,17.63,74274.0,12.17,-6.81,-21.57,0,*7A
1497160817.45,38655,17.69,74276.3,12.17,-7.35,-22.11,0,*74
1497160818.67,38656,17.69,74274.8,12.17,-7.23,-22.03,0,*73
1497160819.9,38657,17.69,74274.5,12.17,-6.55,-21.39,0,*78
1497160821.15,38658,17.69,74278.3,12.21,-6.51,-21.33,0,*7C
1497160822.37,38659,17.69,74276.5,12.19,-6.43,-21.33,0,*75
1497160823.6,38660,17.63,74274.3,12.19,-6.51,-21.67,0,*7D
1497160824.83,38661,17.69,74278.0,12.19,-6.63,-21.77,0,*7C
1497160826.06,38662,17.69,74274.5,12.19,-6.43,-21.67,0,*7C
1497160827.28,38663,17.69,74276.5,12.19,-6.39,-21.67,0,*70
1497160828.51,38664,17.69,74278.0,12.19,-6.01,-21.33,0,*7D
1497160829.75,38665,17.69,74276.3,12.17,-6.47,-21.97,0,*7E
1497160831.01,38666,17.69,74274.5,12.17,-6.31,-21.87,0,*7D
1497160832.23,38667,17.69,74274.8,12.17,-6.47,-22.27,0,*74
1497160833.45,38668,17.69,74272.8,12.17,-6.69,-22.67,0,*73
1497160834.65,38669,17.69,74274.0,12.15,-6.59,-22.67,0,*73
1497160835.85,38670,17.69,74274.5,12.15,-6.47,-22.53,0,*73
1497160837.07,38671,17.69,74274.0,12.13,-6.39,-22.57,0,*79
1497160838.29,38672,17.69,74274.8,12.11,-6.27,-22.37,0,*71
1497160839.51,38673,17.63,74270.5,12.13,-6.05,-22.37,0,*72
1497160840.76,38674,17.69,74274.5,12.13,-5.85,-22.11,0,*7A
1497160842.01,38675,17.69,74276.3,12.09,-5.93,-22.27,0,*72
1497160843.21,38676,17.69,74272.5,12.07,-6.47,-22.83,0,*7B
1497160844.4,38677,17.63,74274.0,12.07,-6.01,-22.41,0,*76
1497160845.62,38678,17.69,74274.5,12.05,-6.05,-22.53,0,*7C
1497160846.9,38679,17.69,74272.5,12.05,-5.93,-22.21,0,*74
1497160848.15,38680,17.69,74276.8,12.01,-5.31,-21.63,0,*7B
1497160849.39,38681,17.69,74274.0,12.01,-4.73,-21.13,0,*7A
1497160850.64,38682,17.69,74274.5,12.01,-4.99,-21.27,0,*7A
1497160851.9,38683,17.63,74274.5,12.01,-5.77,-22.27,0,*79
1497160853.12,38684,17.63,74272.0,11.99,-5.89,-22.27,0,*7D
1497160854.41,38685,17.69,74274.3,11.97,-5.93,-22.17,0,*7A
1497160855.6,38686,17.63,74272.0,11.93,-5.39,-21.73,0,*7C
1497160856.81,38687,17.63,74272.0,11.93,-4.93,-20.93,0,*73
1497160858.04,38688,17.69,74276.3,11.93,-4.65,-20.49,0,*72
1497160859.28,38689,17.63,74272.8,11.91,-5.11,-20.93,0,*74
1497160860.5,38690,17.69,74274.3,11.89,-4.57,-20.15,0,*78
1497160861.72,38691,17.69,74274.5,11.91,-4.53,-19.91,0,*72
1497160862.96,38692,17.69,74278.5,11.89,-4.77,-20.53,0,*7A
1497160864.2,38693,17.69,74276.0,11.87,-4.69,-20.09,0,*75
1497160865.4,38694,17.69,74278.8,11.89,-4.25,-19.51,0,*73
1497160866.62,38695,17.69,74274.5,11.87,-3.87,-19.07,0,*70
1497160867.86,38696,17.69,74276.3,11.87,-3.67,-18.83,0,*70
1497160869.09,38697,17.69,74276.8,11.87,-3.35,-18.41,0,*78
1497160870.31,38698,17.69,74278.0,11.87,-3.31,-18.25,0,*71
1497160871.58,38699,17.69,74274.3,11.87,-3.55,-18.55,0,*75
1497160872.77,38700,17.69,74276.5,11.89,-3.35,-18.25,0,*7B
1497160874.01,38701,17.69,74272.3,11.89,-3.59,-18.59,0,*7B
1497160875.23,38702,17.69,74276.8,11.89,-3.07,-17.79,0,*7E
1497160876.42,38703,17.69,74276.3,11.89,-2.83,-17.69,0,*73
1497160877.64,38704,17.69,74276.8,11.89,-2.79,-17.41,0,*7B
1497160878.86,38705,17.63,74272.8,11.91,-2.87,-17.49,0,*7A
1497160880.1,38706,17.69,74276.3,11.91,-2.99,-17.59,0,*77
1497160881.32,38707,17.69,74276.5,11.89,-3.03,-17.63,0,*74
1497160882.57,38708,17.69,74276.3,11.91,-2.55,-16.83,0,*7F
1497160883.84,38709,17.69,74276.8,11.91,-2.67,-17.03,0,*76
1497160885.08,38710,17.69,74278.5,11.91,-2.99,-17.21,0,*7F
1497160886.3,38711,17.69,74274.8,11.91,-2.87,-16.89,0,*72
1497160887.52,38712,17.69,74276.5,11.93,-2.23,-16.17,0,*7A
1497160888.77,38713,17.69,74276.8,11.95,-1.95,-15.75,0,*74
1497160890.02,38714,17.69,74274.8,11.95,-1.83,-15.67,0,*77
1497160891.27,38715,17.69,74278.8,11.97,-2.31,-16.09,0,*75
1497160892.53,38716,17.69,74278.8,11.97,-2.31,-16.09,0,*76
1497160893.78,38717,17.69,74276.8,11.99,-2.51,-16.27,0,*73
1497160894.98,38718,17.69,74274.8,11.99,-2.91,-16.55,0,*75
1497160896.2,38719,17.69,74276.8,11.99,-2.87,-16.31,0,*71
1497160897.42,38720,17.69,74274.8,11.99,-2.79,-16.27,0,*7D
1497160898.62,38721,17.69,74278.0,11.99,-3.03,-16.45,0,*74
1497160899.81,38722,17.69,74276.3,11.99,-3.03,-16.45,0,*77
1497160901.02,38723,17.69,74278.0,11.99,-3.19,-16.75,0,*7E
1497160902.27,38724,17.69,74278.0,11.99,-3.67,-17.17,0,*75
1497160903.52,38725,17.69,74276.8,11.99,-3.71,-17.21,0,*76
1497160904.75,38726,17.69,74276.5,11.99,-3.43,-16.75,0,*74
1497160905.97,38727,17.69,74278.5,11.99,-3.07,-16.31,0,*75
1497160907.22,38728,17.69,74276.3,11.97,-3.11,-16.23,0,*70
1497160908.44,38729,17.69,74278.8,11.99,-3.19,-16.27,0,*73
1497160909.68,38730,17.69,74278.0,11.99,-3.67,-16.59,0,*7B
1497160910.91,38731,17.69,74274.8,11.99,-3.31,-16.17,0,*73
1497160912.11,38732,17.69,74276.3,11.99,-3.15,-15.95,0,*7F
1497160913.32,38733,17.69,74276.5,11.99,-3.19,-16.03,0,*7E
1497160914.55,38734,17.69,74274.8,12.01,-3.15,-15.95,0,*7B
1497160915.81,38735,17.69,74278.5,12.01,-3.39,-16.17,0,*7D
1497160917.04,38736,17.69,74276.0,12.01,-3.39,-16.03,0,*7B
1497160918.27,38737,17.69,74276.3,12.01,-3.39,-15.95,0,*76
1497160919.55,38738,17.69,74280.0,12.01,-3.67,-16.17,0,*7B
1497160920.81,38739,17.63,74272.5,12.01,-3.31,-15.57,0,*7E
1497160922.04,38740,17.69,74278.0,12.01,-3.03,-15.15,0,*77
1497160923.29,38741,17.69,74278.8,12.05,-3.39,-15.35,0,*79
1497160924.51,38742,17.69,74278.5,12.05,-3.11,-15.11,0,*76
1497160925.76,38743,17.69,74272.5,12.07,-3.59,-15.35,0,*7F
1497160927.0,38744,17.69,74278.8,12.07,-3.63,-15.49,0,*7A
1497160928.23,38745,17.69,74276.8,12.07,-4.01,-15.75,0,*77
1497160929.42,38746,17.69,74276.8,12.07,-4.45,-16.03,0,*76
1497160930.63,38747,17.69,74278.0,12.09,-4.45,-16.03,0,*79
1497160931.86,38748,17.69,74278.8,12.07,-4.25,-15.57,0,*7C
1497160933.09,38749,17.69,74276.3,12.07,-4.25,-15.43,0,*78
1497160934.31,38750,17.69,74278.5,12.09,-4.65,-15.95,0,*71
1497160935.53,38751,17.69,74278.3,12.07,-4.89,-16.03,0,*70
1497160936.78,38752,17.69,74276.5,12.09,-4.89,-15.95,0,*71
1497160937.98,38753,17.69,74278.5,12.07,-4.61,-15.49,0,*79
1497160939.21,38754,17.69,74278.0,12.07,-4.65,-15.35,0,*71
1497160940.43,38755,17.69,74278.8,12.07,-4.73,-15.49,0,*7C
1497160941.66,38756,17.69,74278.8,12.07,-4.89,-15.49,0,*7A
1497160942.86,38757,17.69,74276.0,12.07,-4.61,-15.07,0,*77
1497160944.1,38758,17.69,74278.0,12.09,-4.65,-15.01,0,*74
1497160945.38,38759,17.69,74276.5,12.09,-5.03,-15.43,0,*72
1497160946.63,38760,17.69,74276.5,12.07,-5.15,-15.35,0,*70
1497160947.88,38761,17.69,74278.0,12.09,-5.27,-15.49,0,*75
1497160949.08,38762,17.69,74278.8,12.11,-5.51,-15.67,0,*72
1497160950.34,38763,17.69,74276.8,12.09,-5.31,-15.49,0,*70
1497160951.57,38764,17.69,74276.5,12.09,-5.51,-15.49,0,*71
1497160952.77,38765,17.63,74272.8,12.07,-5.43,-15.71,0,*76
1497160954.04,38766,17.69,74278.5,12.09,-5.81,-15.85,0,*7E
1497160955.32,38767,17.69,74278.0,12.09,-5.89,-15.85,0,*77
1497160956.57,38768,17.69,74276.8,12.07,-5.89,-15.89,0,*7A
1497160957.79,38769,17.69,74276.0,12.07,-6.01,-15.89,0,*78
1497160959.04,38770,17.69,74276.5,12.07,-6.19,-16.09,0,*72
1497160960.24,38771,17.69,74276.3,12.07,-6.31,-16.03,0,*73
1497160961.44,38772,17.69,74276.8,12.07,-6.73,-16.37,0,*71
1497160962.7,38773,17.63,74276.0,12.01,-6.51,-16.13,0,*70
1497160963.95,38774,17.69,74278.5,12.05,-6.39,-15.81,0,*75
1497160965.19,38775,17.69,74282.0,12.05,-6.47,-15.89,0,*75
1497160966.45,38776,17.69,74280.8,12.01,-6.77,-16.13,0,*71
1497160967.68,38777,17.69,74276.8,12.01,-6.89,-16.03,0,*70
1497160968.93,38778,17.69,74276.0,12.01,-6.93,-15.95,0,*78
1497160970.21,38779,17.69,74276.8,12.01,-7.01,-15.85,0,*72
1497160971.5,38780,17.63,74274.8,12.01,-7.01,-15.81,0,*70
1497160972.75,38781,17.69,74276.8,11.99,-7.35,-16.17,0,*78
1497160973.98,38782,17.69,74280.5,11.99,-7.57,-16.41,0,*7C
1497160975.23,38783,17.69,74276.3,11.97,-7.77,-16.75,0,*76
1497160976.51,38784,17.69,74278.8,11.97,-7.61,-16.51,0,*70
1497160977.77,38785,17.69,74276.8,11.97,-7.39,-16.23,0,*79
1497160978.99,38786,17.69,74274.8,11.95,-7.53,-16.37,0,*71
1497160980.19,38787,17.69,74278.5,11.93,-7.53,-16.37,0,*76
1497160981.41,38788,17.69,74278.3,11.93,-7.65,-16.41,0,*7D
1497160982.68,38789,17.69,74276.0,11.95,-7.69,-16.51,0,*77
1497160983.9,38790,17.69,74276.5,11.93,-7.77,-16.55,0,*72
1497160985.14,38791,17.69,74278.0,11.91,-8.03,-16.83,0,*76
1497160986.36,38792,17.69,74276.3,11.89,-8.03,-16.75,0,*75
1497160987.59,38793,17.69,74278.0,11.89,-7.91,-16.59,0,*7E
1497160988.8,38794,17.69,74278.8,11.91,-7.87,-16.45,0,*7A
1497160990.04,38795,17.69,74282.5,11.87,-7.91,-16.45,0,*7B
1497160991.26,38796,17.69,74276.3,11.85,-7.83,-16.31,0,*7A
1497160992.51,38797,17.69,74276.8,11.85,-8.03,-16.51,0,*7A
1497160993.74,38798,17.69,74278.5,11.87,-8.37,-16.75,0,*76
1497160994.97,38799,17.69,74278.0,11.85,-8.07,-16.55,0,*74
1497160996.17,38800,17.69,74278.0,11.81,-8.25,-16.59,0,*73
1497160997.37,38801,17.69,74276.0,11.81,-8.29,-16.55,0,*72
1497160998.61,38802,17.63,74276.5,11.79,-8.55,-16.59,0,*71
1497160999.87,38803,17.69,74282.0,11.79,-8.51,-16.55,0,*78
1497161001.1,38804,17.69,74276.5,11.79,-8.67,-16.55,0,*7A
1497161002.34,38805,17.63,74276.5,11.75,-8.59,-16.27,0,*7F
1497161003.57,38806,17.69,74278.5,11.75,-8.55,-16.03,0,*76
1497161004.78,38807,17.69,74282.0,11.73,-8.89,-16.41,0,*76
1497161006.01,38808,17.69,74276.5,11.73,-8.59,-15.89,0,*73
1497161007.24,38809,17.69,74276.5,11.75,-8.41,-15.71,0,*7A
1497161008.47,38810,17.69,74276.0,11.73,-8.97,-16.09,0,*73
1497161009.73,38811,17.69,74276.5,11.71,-9.37,-16.55,0,*72
1497161010.96,38812,17.63,74276.0,11.73,-9.31,-16.23,0,*74
1497161012.23,38813,17.69,74278.3,11.71,-9.01,-15.81,0,*7F
1497161013.49,38814,17.69,74280.0,11.71,-9.01,-15.81,0,*78
1497161014.73,38815,17.69,74282.0,11.71,-9.23,-15.95,0,*7C
1497161015.98,38816,17.69,74278.8,11.69,-8.81,-15.39,0,*79
1497161017.22,38817,17.69,74280.3,11.69,-8.75,-15.39,0,*73
1497161018.42,38818,17.69,74278.8,11.73,-8.45,-14.89,0,*7E
1497161019.62,38819,17.69,74282.8,11.73,-8.21,-14.61,0,*7B
1497161020.88,38820,17.69,74282.0,11.75,-8.11,-14.37,0,*77
1497161022.1,38821,17.69,74278.8,11.73,-7.83,-14.05,0,*75
1497161023.36,38822,17.69,74282.3,11.75,-7.87,-14.01,0,*70
1497161024.58,38823,17.69,74276.3,11.81,-8.29,-14.51,0,*74
1497161025.83,38824,17.69,74276.5,11.81,-8.11,-14.05,0,*79
1497161027.07,38825,17.69,74276.5,11.81,-7.95,-13.79,0,*77
1497161028.31,38826,17.69,74276.5,11.85,-8.11,-13.87,0,*72
1497161029.54,38827,17.69,74278.0,11.85,-8.37,-14.05,0,*7A
1497161030.76,38828,17.69,74278.3,11.91,-8.17,-13.93,0,*7A
1497161032.0,38829,17.69,74278.5,11.91,-8.37,-14.05,0,*71
1497161033.24,38830,17.69,74280.0,11.91,-8.03,-13.65,0,*7F
1497161034.46,38831,17.69,74280.5,11.93,-8.37,-14.05,0,*7A
1497161035.71,38832,17.69,74278.0,11.95,-7.99,-13.51,0,*72
1497161036.98,38833,17.69,74282.0,11.97,-7.77,-13.33,0,*75
1497161038.2,38834,17.69,74276.3,12.01,-8.37,-13.93,0,*7F
1497161039.46,38835,17.69,74276.5,12.01,-7.99,-13.55,0,*7F
1497161040.7,38836,17.69,74276.8,12.05,-8.07,-13.47,0,*73
1497161041.94,38837,17.69,74278.8,12.05,-8.45,-13.79,0,*79
1497161043.16,38838,17.69,74278.3,12.09,-8.41,-13.73,0,*74
1497161044.41,38839,17.69,74280.3,12.09,-8.59,-13.97,0,*76
1497161045.61,38840,17.69,74280.0,12.11,-8.85,-14.11,0,*79
1497161046.86,38841,17.69,74280.0,12.13,-8.81,-14.15,0,*7A
1497161048.08,38842,17.69,74276.5,12.13,-8.97,-14.15,0,*7E
1497161049.33,38843,17.69,74278.8,12.15,-9.49,-14.75,0,*7D
1497161050.57,38844,17.69,74278.8,12.17,-9.57,-14.89,0,*74
1497161051.8,38845,17.69,74276.3,12.17,-9.23,-14.29,0,*7C
1497161053.02,38846,17.69,74280.0,12.17,-9.23,-14.29,0,*7F
1497161054.24,38847,17.69,74278.3,12.19,-8.97,-13.87,0,*7D
1497161055.49,38848,17.69,74276.3,12.21,-8.85,-13.79,0,*7B
1497161056.74,38849,17.69,74276.5,12.21,-9.05,-13.83,0,*76
1497161057.99,38850,17.69,74280.0,12.27,-9.15,-13.87,0,*7D
1497161059.25,38851,17.69,74280.3,12.27,-9.41,-14.55,0,*75
1497161060.47,38852,17.69,74280.8,12.27,-9.97,-14.55,0,*7D
1497161061.72,38853,17.69,74282.0,12.27,-9.83,-14.47,0,*7A
1497161062.97,38854,17.69,74282.0,12.29,-9.97,-14.55,0,*75
1497161064.21,38855,17.69,74280.5,12.29,-9.97,-14.55,0,*74
1497161065.42,38856,17.69,74278.0,12.31,-10.31,-14.89,0,*4B
1497161066.67,38857,17.69,74276.5,12.29,-10.53,-15.21,0,*44
1497161067.93,38858,17.69,74282.8,12.29,-10.41,-15.07,0,*4C
1497161069.13,38859,17.69,74280.3,12.31,-10.45,-15.15,0,*43
1497161070.34,38860,17.69,74276.8,12.31,-10.35,-15.15,0,*4E
1497161071.55,38861,17.69,74278.5,12.31,-10.35,-15.25,0,*4C
1497161072.78,38862,17.69,74280.8,12.31,-10.49,-15.39,0,*49
1497161074.01,38863,17.69,74276.3,12.31,-10.53,-15.43,0,*4E
1497161075.27,38864,17.69,74278.0,12.29,-10.41,-15.49,0,*49
1497161076.56,38865,17.69,74280.5,12.29,-10.75,-15.81,0,*4B
1497161077.85,38866,17.69,74276.5,12.29,-11.07,-16.09,0,*4F
1497161079.05,38867,17.69,74280.0,12.27,-11.23,-16.45,0,*4E
1497161080.27,38868,17.69,74282.3,12.27,-11.45,-16.55,0,*40
1497161081.52,38869,17.69,74278.5,12.27,-11.37,-16.69,0,*4B
1497161082.74,38870,17.69,74280.0,12.23,-11.81,-17.31,0,*46
1497161084.0,38871,17.69,74282.5,12.19,-11.55,-17.17,0,*43
1497161085.25,38872,17.69,74276.0,12.15,-11.37,-17.11,0,*4E
1497161086.48,38873,17.69,74278.3,12.15,-10.57,-16.65,0,*4A
1497161087.72,38874,17.69,74282.5,12.15,-10.15,-16.23,0,*49
1497161088.93,38875,17.69,74278.3,12.13,-9.89,-16.03,0,*71
1497161090.18,38876,17.69,74282.0,12.13,-9.05,-15.01,0,*77
1497161091.41,38877,17.69,74282.0,12.11,-8.97,-15.01,0,*7E
1497161092.64,38878,17.69,74278.3,12.11,-8.71,-14.79,0,*77
1497161093.87,38879,17.69,74282.5,12.13,-8.97,-15.15,0,*77
1497161095.12,38880,17.69,74282.0,12.11,-9.11,-15.57,0,*7A
1497161096.35,38881,17.69,74280.3,12.09,-8.45,-15.15,0,*74
1497161097.59,38882,17.69,74278.3,12.09,-8.29,-14.93,0,*72
1497161098.81,38883,17.69,74278.0,12.09,-8.21,-15.07,0,*77
1497161100.06,38884,17.69,74282.8,12.09,-7.95,-15.07,0,*70
1497161101.31,38885,17.69,74276.5,12.09,-8.97,-16.17,0,*7E
1497161102.56,38886,17.69,74280.5,12.05,-8.75,-16.23,0,*7A
1497161103.81,38887,17.69,74280.3,12.01,-9.05,-16.69,0,*77
1497161105.04,38888,17.69,74276.3,12.01,-9.19,-16.83,0,*71
1497161106.3,38889,17.69,74282.8,11.97,-9.41,-16.97,0,*74
1497161107.52,38890,17.69,74280.5,11.95,-9.27,-16.93,0,*7A
1497161108.77,38891,17.69,74282.5,11.91,-9.11,-16.59,0,*7C
1497161110.01,38892,17.69,74280.8,11.89,-8.03,-15.35,0,*7D
1497161111.24,38893,17.69,74278.3,11.89,-7.65,-14.89,0,*75
1497161112.46,38894,17.69,74278.5,11.89,-7.27,-14.29,0,*7E
1497161113.67,38895,17.69,74280.5,11.89,-7.27,-14.29,0,*7F
1497161114.91,38896,17.69,74280.3,11.89,-7.65,-14.43,0,*76
1497161116.18,38897,17.69,74276.5,11.91,-7.31,-13.97,0,*71
1497161117.4,38898,17.69,74276.8,11.89,-7.65,-14.11,0,*7F
1497161118.65,38899,17.69,74282.5,11.87,-7.73,-14.11,0,*77
1497161119.89,38900,17.69,74282.3,11.89,-7.35,-13.37,0,*79
1497161121.08,38901,17.69,74280.5,11.89,-7.53,-13.47,0,*7F
1497161122.35,38902,17.69,74282.8,11.87,-8.07,-13.87,0,*70
1497161123.58,38903,17.69,74280.0,11.85,-7.57,-13.07,0,*71
1497161124.81,38904,17.69,74278.8,11.87,-7.23,-12.47,0,*72
1497161126.05,38905,17.69,74280.3,11.91,-7.35,-12.43,0,*77
1497161127.29,38906,17.69,74280.3,11.89,-7.27,-12.15,0,*7D
1497161128.54,38907,17.69,74280.3,11.89,-7.27,-11.89,0,*7A
1497161129.81,38908,17.69,74282.3,11.91,-7.35,-11.93,0,*74
1497161131.03,38909,17.69,74280.3,11.91,-7.83,-12.25,0,*76
1497161132.3,38910,17.69,74278.5,11.91,-7.95,-12.11,0,*7E
1497161133.55,38911,17.69,74278.5,11.91,-8.11,-12.21,0,*7F
1497161134.8,38912,17.69,74278.0,11.91,-8.55,-12.71,0,*79
1497161136.06,38913,17.69,74280.0,11.91,-8.89,-12.79,0,*71
1497161137.27,38914,17.69,74282.3,11.89,-8.63,-12.65,0,*76
1497161138.49,38915,17.69,74280.5,11.91,-8.67,-12.43,0,*7E
1497161139.72,38916,17.69,74280.5,11.89,-8.85,-12.57,0,*7D
1497161140.92,38917,17.69,74280.5,11.89,-8.63,-12.21,0,*75
1497161142.17,38918,17.69,74280.0,11.91,-8.63,-12.07,0,*77
1497161143.44,38919,17.69,74276.0,11.91,-8.81,-12.11,0,*7D
1497161144.66,38920,17.69,74282.3,11.91,-9.05,-12.25,0,*7D
1497161145.86,38921,17.69,74280.8,11.89,-9.01,-12.03,0,*75
1497161147.11,38922,17.69,74280.0,11.91,-8.97,-11.93,0,*7B
1497161148.36,38923,17.69,74280.0,11.91,-8.67,-11.55,0,*7F
1497161149.6,38924,17.69,74280.0,11.91,-8.75,-11.37,0,*7F
1497161150.82,38925,17.69,74280.0,11.91,-8.67,-11.15,0,*7D
1497161152.02,38926,17.69,74278.0,11.93,-8.71,-11.23,0,*7E
1497161153.24,38927,17.69,74278.5,11.95,-8.59,-10.93,0,*79
1497161154.46,38928,17.69,74278.5,11.95,-8.59,-10.85,0,*71
1497161155.72,38929,17.69,74280.3,11.95,-8.59,-10.67,0,*7C
1497161156.95,38930,17.69,74282.0,11.97,-8.89,-10.93,0,*70
1497161158.18,38931,17.69,74282.0,11.99,-8.75,-10.75,0,*74
1497161159.41,38932,17.69,74278.0,11.99,-8.85,-10.71,0,*7C
1497161160.62,38933,17.69,74280.8,11.99,-8.55,-10.31,0,*74
1497161161.85,38934,17.69,74282.0,12.05,-8.45,-10.23,0,*77
1497161163.1,38935,17.69,74282.0,12.05,-8.51,-10.23,0,*73
1497161164.33,38936,17.69,74276.8,12.05,-8.59,-10.27,0,*7C
1497161165.55,38937,17.69,74276.5,12.09,-8.41,-10.05,0,*78
1497161166.77,38938,17.69,74278.3,12.09,-8.29,-9.71,0,*42
1497161167.98,38939,17.69,74280.5,12.11,-8.63,-10.15,0,*7E
1497161169.2,38940,17.69,74280.3,12.13,-9.19,-10.89,0,*7B
1497161170.43,38941,17.69,74280.3,12.13,-9.31,-11.01,0,*71
1497161171.68,38942,17.69,74282.0,12.13,-9.45,-11.11,0,*70
1497161172.88,38943,17.69,74282.3,12.15,-8.89,-10.53,0,*71
1497161174.11,38944,17.69,74280.8,12.15,-8.81,-10.45,0,*79
1497161175.35,38945,17.69,74282.3,12.19,-8.51,-10.19,0,*70
1497161176.58,38946,17.69,74278.8,12.19,-8.51,-10.19,0,*73
1497161177.81,38947,17.69,74278.5,12.19,-8.11,-9.93,0,*4C
1497161179.01,38948,17.69,74278.8,12.23,-8.21,-10.01,0,*7A
1497161180.25,38949,17.69,74280.5,12.27,-7.65,-9.57,0,*4B
1497161181.49,38950,17.69,74280.5,12.29,-8.03,-9.93,0,*4A
1497161182.74,38951,17.69,74282.0,12.29,-7.95,-9.79,0,*4F
1497161184.02,38952,17.69,74280.5,12.33,-7.73,-9.49,0,*4C
1497161185.24,38953,17.69,74280.8,12.35,-7.73,-9.71,0,*40
1497161186.51,38954,17.69,74282.8,12.37,-7.65,-9.57,0,*46
1497161187.76,38955,17.69,74280.0,12.37,-7.95,-10.09,0,*7B
1497161188.98,38956,17.69,74280.5,12.39,-7.95,-9.97,0,*49
1497161190.2,38957,17.69,74280.8,12.43,-7.57,-9.71,0,*43
1497161191.45,38958,17.69,74282.8,12.41,-7.65,-9.75,0,*4B
1497161192.68,38959,17.69,74282.8,12.49,-8.37,-10.53,0,*76
1497161193.94,38960,17.69,74280.8,12.45,-8.21,-10.41,0,*74
1497161195.2,38961,17.69,74278.3,12.45,-8.11,-10.31,0,*71
1497161196.45,38962,17.69,74278.5,12.49,-7.95,-10.53,0,*79
1497161197.71,38963,17.69,74280.8,12.49,-7.57,-10.01,0,*71
1497161198.95,38964,17.69,74278.8,12.53,-7.27,-9.93,0,*49
1497161200.19,38965,17.69,74280.0,12.53,-6.73,-9.41,0,*47
1497161201.45,38966,17.69,74282.5,12.57,-6.51,-9.37,0,*41
1497161202.67,38967,17.69,74280.8,12.57,-6.89,-9.75,0,*43
1497161203.86,38968,17.69,74282.8,12.59,-6.73,-9.97,0,*4B
1497161205.06,38969,17.69,74282.5,12.59,-6.77,-10.09,0,*71
1497161206.28,38970,17.69,74282.5,12.61,-5.93,-9.23,0,*4B
1497161207.5,38971,17.69,74280.0,12.63,-5.39,-8.71,0,*4E
1497161208.69,38972,17.69,74282.5,12.65,-6.01,-9.31,0,*46
1497161209.94,38973,17.69,74280.8,12.69,-6.27,-9.53,0,*4B
1497161211.16,38974,17.69,74282.8,12.69,-6.35,-9.53,0,*4F
1497161212.41,38975,17.69,74282.0,12.69,-6.19,-9.41,0,*43
1497161213.61,38976,17.69,74284.0,12.69,-6.77,-10.09,0,*7C
1497161214.85,38977,17.69,74282.3,12.75,-6.63,-10.01,0,*7D
1497161216.09,38978,17.69,74280.0,12.75,-6.51,-10.01,0,*73
1497161217.34,38979,17.69,74282.3,12.75,-6.89,-10.41,0,*73
1497161218.54,38980,17.69,74280.3,12.73,-6.47,-10.09,0,*7D
1497161219.77,38981,17.69,74282.5,12.75,-6.55,-10.15,0,*74
1497161221.02,38982,17.69,74282.8,12.73,-5.77,-9.41,0,*4B
1497161222.25,38983,17.69,74280.0,12.73,-5.85,-9.79,0,*4C
1497161223.47,38984,17.69,74282.5,12.77,-6.27,-10.31,0,*70
1497161224.7,38985,17.69,74280.0,12.75,-6.13,-10.27,0,*73
1497161225.96,38986,17.69,74282.5,12.75,-5.89,-10.27,0,*70
1497161227.21,38987,17.69,74282.0,12.75,-5.65,-10.19,0,*7E
1497161228.46,38988,17.69,74282.3,12.75,-5.77,-10.49,0,*77
1497161229.72,38989,17.69,74282.5,12.73,-5.81,-10.67,0,*75
1497161230.97,38990,17.69,74278.8,12.75,-5.89,-10.85,0,*7F
1497161232.2,38991,17.69,74280.8,12.73,-5.69,-10.45,0,*7A
1497161233.43,38992,17.69,74282.0,12.75,-5.11,-9.79,0,*47
1497161234.66,38993,17.69,74282.5,12.73,-5.27,-9.93,0,*41
1497161235.88,38994,17.69,74280.0,12.75,-5.39,-9.93,0,*4F
1497161237.1,38995,17.69,74282.0,12.73,-5.27,-10.09,0,*7C
1497161238.34,38996,17.69,74280.8,12.73,-5.81,-10.31,0,*78
1497161239.58,38997,17.69,74282.0,12.75,-5.61,-9.93,0,*41
1497161240.83,38998,17.63,74276.3,12.73,-5.31,-9.41,0,*42
1497161242.07,38999,17.69,74278.8,12.75,-5.39,-9.37,0,*4C
1497161243.29,39000,17.69,74280.5,12.75,-4.57,-8.41,0,*4D
1497161244.48,39001,17.69,74278.3,12.77,-4.57,-8.33,0,*4B
1497161245.67,39002,17.69,74280.5,12.77,-4.57,-8.41,0,*4D
1497161246.9,39003,17.69,74282.3,12.79,-4.69,-8.63,0,*4F
1497161248.11,39004,17.69,74278.3,12.77,-4.57,-8.81,0,*47
1497161249.32,39005,17.69,74280.0,12.79,-4.41,-8.45,0,*47
1497161250.57,39006,17.69,74280.5,12.83,-4.33,-8.07,0,*42
1497161251.81,39007,17.69,74280.8,12.83,-4.85,-8.45,0,*48
1497161253.05,39008,17.69,74280.5,12.83,-4.61,-7.95,0,*4F
1497161254.26,39009,17.69,74280.3,12.85,-4.29,-7.69,0,*47
1497161255.53,39010,17.69,74282.8,12.87,-4.01,-7.27,0,*4D
1497161256.77,39011,17.69,74280.8,12.91,-4.65,-7.95,0,*40
1497161258.0,39012,17.69,74278.8,12.91,-4.85,-8.29,0,*45
1497161259.27,39013,17.69,74280.3,12.91,-5.69,-9.45,0,*4C
1497161260.46,39014,17.69,74282.8,12.89,-6.13,-9.97,0,*43
1497161261.7,39015,17.69,74280.3,12.91,-5.27,-9.31,0,*43
1497161262.91,39016,17.69,74278.5,12.89,-4.93,-9.19,0,*4D
1497161264.14,39017,17.69,74282.0,12.91,-4.99,-9.57,0,*45
1497161265.36,39018,17.69,74280.8,12.91,-4.65,-9.71,0,*4D
1497161266.58,39019,17.69,74282.5,12.89,-4.13,-9.37,0,*46
1497161267.78,39020,17.69,74278.5,12.89,-3.27,-8.89,0,*48
1497161269.01,39021,17.69,74282.5,12.89,-2.51,-8.37,0,*4C
1497161270.22,39022,17.69,74276.3,12.91,-2.43,-8.41,0,*44
1497161271.43,39023,17.69,74280.0,12.91,-2.19,-8.41,0,*4A
1497161272.67,39024,17.69,74280.8,12.91,-2.11,-8.41,0,*45
1497161273.9,39025,17.69,74280.0,12.91,-1.95,-8.33,0,*4E
1497161275.17,39026,17.69,74282.8,12.91,-1.35,-7.69,0,*47
1497161276.38,39027,17.69,74280.5,12.91,-1.79,-8.17,0,*48
1497161277.59,39028,17.69,74282.8,12.95,-1.63,-7.77,0,*41
1497161278.82,39029,17.69,74282.3,12.95,-1.21,-7.43,0,*41
1497161280.04,39030,17.69,74282.3,12.97,-0.77,-6.73,0,*7B
1497161281.26,39031,17.69,74282.8,13.01,-0.73,-6.69,0,*7B
1497161282.53,39032,17.69,74280.0,13.01,-0.97,-6.63,0,*78
1497161283.75,39033,17.69,74278.8,13.03,-1.01,-6.59,0,*4C
1497161284.98,39034,17.69,74282.5,13.05,-1.33,-6.73,0,*44
1497161286.18,39035,17.69,74280.0,13.07,-1.63,-7.11,0,*47
1497161287.39,39036,17.69,74280.8,13.07,-1.51,-6.93,0,*4E
1497161288.62,39037,17.69,74280.5,13.09,-1.63,-6.81,0,*43
1497161289.83,39038,17.69,74280.5,13.09,-1.59,-6.89,0,*4D
1497161291.08,39039,17.69,74280.5,13.11,-2.07,-7.39,0,*47
1497161292.3,39040,17.69,74282.3,13.11,-2.31,-7.77,0,*46
1497161293.57,39041,17.69,74280.0,13.09,-1.99,-7.39,0,*45
1497161294.77,39042,17.69,74278.3,13.11,-1.75,-7.15,0,*43
1497161296.01,39043,17.69,74280.0,13.11,-1.83,-7.27,0,*4A
1497161297.21,39044,17.69,74278.0,13.11,-1.71,-7.15,0,*41
1497161298.46,39045,17.69,74282.3,13.11,-2.11,-7.57,0,*43
1497161299.73,39046,17.69,74278.5,13.13,-1.83,-7.35,0,*4E
1497161300.96,39047,17.69,74278.8,13.13,-1.71,-7.23,0,*45
1497161302.17,39048,17.69,74282.3,13.11,-1.75,-7.35,0,*4B